Lumberton, NC

3:44 AM EDT on October 19, 2017 (GMT -0400)
Lumberton Municipal

Weather History for KLBT - November, 2014

Change the Weather History Date:

Sunday, November 2, 2014

  Actual Average Record
Temperature  
Mean Temperature 45 °F 58 °F  
Max Temperature 57 °F 71 °F 84 °F (2004)
Min Temperature 32 °F 45 °F 31 °F (2012)
Degree Days  
Heating Degree Days 20 8  
Month to date heating degree days 35 16  
Since 1 July heating degree days 123 148  
Cooling Degree Days 0 1  
Month to date cooling degree days 0 2  
Year to date cooling degree days 2052 1896  
Moisture  
Dew Point 29 °F    
Average Humidity 60    
Maximum Humidity 89    
Minimum Humidity 30    
Precipitation  
Precipitation 0.00 in 0.07 in 0.89 in (1999)
Month to date precipitation 0.15 0.15  
Year to date precipitation 36.93 37.91  
Sea Level Pressure  
Sea Level Pressure 30.18 in    
Wind  
Wind Speed 11 mph (NW)    
Max Wind Speed 22 mph    
Max Gust Speed 31 mph    
Visibility 10 miles    
Events      
T = Trace of Precipitation, MM = Missing Value Source: NWS Daily Summary

Daily Weather History Graph

Daily Weather History Graph

Search for Another Location

Airport or City:

Trip Planner

Search our weather history database for the weather conditions in past years. The results will help you decide how hot, cold, wet, or windy it might be!

Date:

Astronomy

Nov. 02, 2014 Rise Set
Actual Time 6:37 AM EST 5:21 PM EST
Civil Twilight 6:11 AM EST 5:47 PM EST
Nautical Twilight 5:41 AM EST 6:17 PM EST
Astronomical Twilight 5:12 AM EST 6:46 PM EST
Moon 2:41 PM EST (11/2) 1:50 AM EST (11/2)
Length of Visible Light 11h 36m
Length of Day
10h 44m
Waxing Gibbous, 78% of the Moon is Illuminated
Nov 2
Waxing Gibbous
Nov 6
Full
Nov 14
Last Quarter
Nov 22
New
Nov 29
First Quarter

Hourly Weather History & Observations

Time (EST) Temp. Windchill Dew Point Humidity Pressure Visibility Wind Dir Wind Speed Gust Speed Precip Events Conditions
12:54 AM 46.0 °F 40.2 °F 37.0 °F 71% 29.98 in 10.0 mi NW 12.7 mph - N/A   Clear
1:54 AM 46.0 °F 40.2 °F 36.0 °F 68% 29.99 in 10.0 mi NW 12.7 mph - N/A   Clear
1:54 AM 45.0 °F 39.7 °F 35.1 °F 68% 30.01 in 10.0 mi NW 10.4 mph - N/A   Clear
2:54 AM 43.0 °F 36.8 °F 34.0 °F 71% 30.04 in 10.0 mi WNW 11.5 mph - N/A   Clear
3:54 AM 43.0 °F 37.7 °F 32.0 °F 65% 30.06 in 10.0 mi NW 9.2 mph - N/A   Clear
4:54 AM 41.0 °F 33.5 °F 30.0 °F 65% 30.11 in 10.0 mi NW 13.8 mph - N/A   Clear
5:54 AM 39.0 °F 32.3 °F 28.9 °F 67% 30.14 in 10.0 mi NW 10.4 mph - N/A   Clear
6:54 AM 39.9 °F 32.1 °F 27.0 °F 60% 30.16 in 10.0 mi WNW 13.8 mph - N/A   Clear
7:54 AM 43.0 °F 35.7 °F 26.1 °F 51% 30.20 in 10.0 mi NW 15.0 mph 24.2 mph N/A   Clear
8:54 AM 46.0 °F 39.9 °F 26.1 °F 46% 30.22 in 10.0 mi NW 13.8 mph 21.9 mph N/A   Clear
9:54 AM 48.0 °F - 25.0 °F 41% 30.22 in 10.0 mi NW 19.6 mph 31.1 mph N/A   Clear
10:54 AM 51.1 °F - 26.1 °F 38% 30.22 in 10.0 mi NW 16.1 mph 27.6 mph N/A   Clear
11:54 AM 53.1 °F - 26.1 °F 35% 30.21 in 10.0 mi North 16.1 mph 21.9 mph N/A   Clear
12:54 PM 55.0 °F - 26.1 °F 33% 30.19 in 10.0 mi NW 17.3 mph 25.3 mph N/A   Clear
1:54 PM 55.0 °F - 26.1 °F 33% 30.18 in 10.0 mi NW 15.0 mph 28.8 mph N/A   Clear
2:54 PM 55.9 °F - 26.1 °F 32% 30.18 in 10.0 mi NW 15.0 mph 23.0 mph N/A   Clear
3:54 PM 55.0 °F - 25.0 °F 31% 30.19 in 10.0 mi NW 12.7 mph 25.3 mph N/A   Clear
4:54 PM 53.1 °F - 24.1 °F 32% 30.20 in 10.0 mi NNW 13.8 mph - N/A   Clear
5:54 PM 46.9 °F - 26.1 °F 44% 30.23 in 10.0 mi NW 6.9 mph - N/A   Clear
6:54 PM 39.9 °F 36.7 °F 30.0 °F 68% 30.25 in 10.0 mi WSW 4.6 mph - N/A   Clear
7:54 PM 37.0 °F - 32.0 °F 82% 30.28 in 10.0 mi Calm Calm - N/A   Clear
8:54 PM 36.0 °F 33.3 °F 30.9 °F 82% 30.30 in 10.0 mi West 3.5 mph - N/A   Clear
9:54 PM 34.0 °F 29.8 °F 30.0 °F 85% 30.33 in 10.0 mi West 4.6 mph - N/A   Clear
10:54 PM 33.1 °F - 28.9 °F 85% 30.33 in 10.0 mi Calm Calm - N/A   Clear